Time,TemperatureF,DewpointF,PressureIn,WindDirection,WindDirectionDegrees,WindSpeedMPH,WindSpeedGustMPH,Humidity,HourlyPrecipIn,Conditions,Clouds,dailyrainin,SoftwareType,DateUTC
2013-03-08 00:05:00,19.9,14.2,28.97,SSE,148,12.0,15.4,78,0.00,,,-99.99,FreeWX-Wi 1.01,2013-03-08 06:05:00,
2013-03-08 00:11:00,19.8,14.0,28.97,SSE,148,12.0,15.4,78,0.00,,,-99.99,FreeWX-Wi 1.01,2013-03-08 06:11:00,
2013-03-08 00:16:00,19.9,14.5,28.97,SSE,147,12.0,17.4,79,0.00,,,-99.99,FreeWX-Wi 1.01,2013-03-08 06:16:00,
2013-03-08 00:21:00,20.1,14.7,28.97,SE,146,12.0,15.4,79,0.00,,,-99.99,FreeWX-Wi 1.01,2013-03-08 06:21:00,
2013-03-08 00:26:00,19.9,14.2,28.97,SE,144,12.0,13.2,78,0.00,,,-99.99,FreeWX-Wi 1.01,2013-03-08 06:26:00,
2013-03-08 00:31:00,19.4,13.5,28.97,SE,140,12.0,15.0,77,0.00,,,-99.99,FreeWX-Wi 1.01,2013-03-08 06:31:00,
2013-03-08 00:36:00,18.7,12.7,28.97,SE,138,12.0,12.8,77,0.00,,,-99.99,FreeWX-Wi 1.01,2013-03-08 06:36:00,
2013-03-08 00:41:00,18.3,12.4,28.97,SE,134,11.0,12.8,77,0.00,,,-99.99,FreeWX-Wi 1.01,2013-03-08 06:41:00,
2013-03-08 00:52:00,17.4,12.0,28.97,SE,129,10.0,10.0,79,0.00,,,-99.99,FreeWX-Wi 1.01,2013-03-08 06:52:00,
2013-03-08 00:57:00,16.9,11.5,28.97,SE,127,9.0,9.0,79,0.00,,,-99.99,FreeWX-Wi 1.01,2013-03-08 06:57:00,
2013-03-08 01:02:00,16.3,10.9,28.97,SE,124,8.0,8.7,79,0.00,,,-99.99,FreeWX-Wi 1.01,2013-03-08 07:02:00,
2013-03-08 01:07:00,16.0,10.9,28.97,ESE,123,8.0,8.3,80,0.00,,,-99.99,FreeWX-Wi 1.01,2013-03-08 07:07:00,
2013-03-08 01:12:00,15.8,10.8,28.97,SE,125,7.0,7.6,80,0.00,,,-99.99,FreeWX-Wi 1.01,2013-03-08 07:12:00,
2013-03-08 01:17:00,15.4,10.4,28.97,SE,126,7.0,7.6,80,0.00,,,-99.99,FreeWX-Wi 1.01,2013-03-08 07:17:00,
2013-03-08 01:22:00,15.3,10.6,28.97,SE,126,6.0,8.1,81,0.00,,,-99.99,FreeWX-Wi 1.01,2013-03-08 07:22:00,
2013-03-08 01:27:00,15.1,10.4,28.97,SE,127,6.0,8.1,81,0.00,,,-99.99,FreeWX-Wi 1.01,2013-03-08 07:27:00,
2013-03-08 01:32:00,14.5,9.9,28.97,SE,128,6.0,8.3,81,0.00,,,-99.99,FreeWX-Wi 1.01,2013-03-08 07:32:00,
2013-03-08 01:37:00,14.5,9.9,28.97,SE,129,6.0,7.6,81,0.00,,,-99.99,FreeWX-Wi 1.01,2013-03-08 07:37:00,
2013-03-08 01:42:00,14.5,10.4,28.97,SE,129,7.0,8.7,83,0.00,,,-99.99,FreeWX-Wi 1.01,2013-03-08 07:42:00,
2013-03-08 01:48:00,14.7,10.6,28.97,SE,128,7.0,9.2,83,0.00,,,-99.99,FreeWX-Wi 1.01,2013-03-08 07:48:00,
2013-03-08 01:53:00,14.7,10.8,28.97,SE,129,7.0,10.1,84,0.00,,,-99.99,FreeWX-Wi 1.01,2013-03-08 07:53:00,
2013-03-08 01:58:00,15.3,11.7,28.97,SE,131,8.0,10.1,85,0.00,,,-99.99,FreeWX-Wi 1.01,2013-03-08 07:58:00,
2013-03-08 02:03:00,15.3,11.8,28.97,SE,133,8.0,10.1,86,0.00,,,-99.99,FreeWX-Wi 1.01,2013-03-08 08:03:00,
2013-03-08 02:08:00,15.4,12.0,28.97,SE,133,8.0,8.7,86,0.00,,,-99.99,FreeWX-Wi 1.01,2013-03-08 08:08:00,
2013-03-08 02:13:00,15.6,12.2,28.97,SE,134,8.0,8.3,86,0.00,,,-99.99,FreeWX-Wi 1.01,2013-03-08 08:13:00,
2013-03-08 02:18:00,15.4,11.5,28.97,SE,135,8.0,8.7,84,0.00,,,-99.99,FreeWX-Wi 1.01,2013-03-08 08:18:00,
2013-03-08 02:23:00,15.3,11.3,28.97,SE,135,8.0,8.1,84,0.00,,,-99.99,FreeWX-Wi 1.01,2013-03-08 08:23:00,
2013-03-08 02:28:00,15.3,11.1,28.97,SE,136,7.0,8.1,83,0.00,,,-99.99,FreeWX-Wi 1.01,2013-03-08 08:28:00,
2013-03-08 02:34:00,15.4,11.5,28.97,SE,135,7.0,7.0,84,0.00,,,-99.99,FreeWX-Wi 1.01,2013-03-08 08:34:00,
2013-03-08 02:39:00,15.3,11.3,28.97,SE,134,6.0,7.6,84,0.00,,,-99.99,FreeWX-Wi 1.01,2013-03-08 08:39:00,
2013-03-08 02:44:00,14.9,10.4,28.97,SE,132,6.0,8.1,82,0.00,,,-99.99,FreeWX-Wi 1.01,2013-03-08 08:44:00,
2013-03-08 02:49:00,14.9,10.8,28.97,SE,129,7.0,8.7,83,0.00,,,-99.99,FreeWX-Wi 1.01,2013-03-08 08:49:00,
2013-03-08 02:54:00,14.5,10.4,28.97,SE,127,7.0,8.7,83,0.00,,,-99.99,FreeWX-Wi 1.01,2013-03-08 08:54:00,
2013-03-08 02:59:00,14.4,10.2,28.97,SE,126,7.0,8.1,83,0.00,,,-99.99,FreeWX-Wi 1.01,2013-03-08 08:59:00,
2013-03-08 03:04:00,14.4,10.2,28.97,SE,125,7.0,7.6,83,0.00,,,-99.99,FreeWX-Wi 1.01,2013-03-08 09:04:00,
2013-03-08 03:09:00,14.4,10.4,28.97,SE,126,7.0,7.6,84,0.00,,,-99.99,FreeWX-Wi 1.01,2013-03-08 09:09:00,
2013-03-08 03:14:00,14.2,10.2,28.97,SE,127,7.0,8.1,84,0.00,,,-99.99,FreeWX-Wi 1.01,2013-03-08 09:14:00,
2013-03-08 03:19:00,14.0,10.0,28.97,SE,128,6.0,6.7,84,0.00,,,-99.99,FreeWX-Wi 1.01,2013-03-08 09:19:00,
2013-03-08 03:25:00,14.0,10.0,28.97,SE,129,6.0,7.6,84,0.00,,,-99.99,FreeWX-Wi 1.01,2013-03-08 09:25:00,
2013-03-08 03:30:00,13.8,9.9,28.97,SE,127,6.0,9.2,84,0.00,,,-99.99,FreeWX-Wi 1.01,2013-03-08 09:30:00,
2013-03-08 03:35:00,13.8,9.9,28.94,SE,126,7.0,8.7,84,0.00,,,-99.99,FreeWX-Wi 1.01,2013-03-08 09:35:00,
2013-03-08 03:40:00,14.0,10.4,28.94,SE,125,7.0,8.3,85,0.00,,,-99.99,FreeWX-Wi 1.01,2013-03-08 09:40:00,
2013-03-08 03:45:00,13.8,10.2,28.94,SE,124,7.0,8.1,85,0.00,,,-99.99,FreeWX-Wi 1.01,2013-03-08 09:45:00,
2013-03-08 03:50:00,14.0,10.4,28.94,SE,124,7.0,7.6,85,0.00,,,-99.99,FreeWX-Wi 1.01,2013-03-08 09:50:00,
2013-03-08 03:55:00,14.0,10.4,28.94,SE,126,7.0,7.6,85,0.00,,,-99.99,FreeWX-Wi 1.01,2013-03-08 09:55:00,
2013-03-08 04:00:00,13.8,10.2,28.94,SE,129,7.0,7.0,85,0.00,,,-99.99,FreeWX-Wi 1.01,2013-03-08 10:00:00,
2013-03-08 04:05:00,13.6,10.0,28.94,SE,130,6.0,7.6,85,0.00,,,-99.99,FreeWX-Wi 1.01,2013-03-08 10:05:00,
2013-03-08 04:10:00,13.1,9.5,28.94,SE,131,6.0,7.6,85,0.00,,,-99.99,FreeWX-Wi 1.01,2013-03-08 10:10:00,
2013-03-08 04:15:00,13.1,9.5,28.94,SE,130,6.0,7.6,85,0.00,,,-99.99,FreeWX-Wi 1.01,2013-03-08 10:15:00,
2013-03-08 04:20:00,13.3,9.7,28.94,SE,128,6.0,7.6,85,0.00,,,-99.99,FreeWX-Wi 1.01,2013-03-08 10:20:00,
2013-03-08 04:25:00,13.6,10.0,28.94,SE,125,6.0,8.1,85,0.00,,,-99.99,FreeWX-Wi 1.01,2013-03-08 10:25:00,
2013-03-08 04:30:00,13.8,10.2,28.94,ESE,123,6.0,8.7,85,0.00,,,-99.99,FreeWX-Wi 1.01,2013-03-08 10:30:00,
2013-03-08 04:35:00,13.8,10.2,28.94,ESE,122,7.0,8.7,85,0.00,,,-99.99,FreeWX-Wi 1.01,2013-03-08 10:35:00,
2013-03-08 04:41:00,13.8,10.2,28.94,ESE,123,7.0,8.3,85,0.00,,,-99.99,FreeWX-Wi 1.01,2013-03-08 10:41:00,
2013-03-08 04:46:00,13.8,10.2,28.94,ESE,123,7.0,8.3,85,0.00,,,-99.99,FreeWX-Wi 1.01,2013-03-08 10:46:00,
2013-03-08 04:51:00,14.0,10.0,28.94,ESE,123,7.0,8.7,84,0.00,,,-99.99,FreeWX-Wi 1.01,2013-03-08 10:51:00,
2013-03-08 04:56:00,14.4,10.4,28.94,SE,124,8.0,8.7,84,0.00,,,-99.99,FreeWX-Wi 1.01,2013-03-08 10:56:00,
2013-03-08 05:01:00,14.4,10.4,28.94,SE,124,8.0,8.7,84,0.00,,,-99.99,FreeWX-Wi 1.01,2013-03-08 11:01:00,
2013-03-08 05:17:00,15.3,11.7,28.94,ESE,123,8.0,8.7,85,0.00,,,-99.99,FreeWX-Wi 1.01,2013-03-08 11:17:00,
2013-03-08 05:22:00,15.3,11.7,28.94,ESE,122,8.0,9.2,85,0.00,,,-99.99,FreeWX-Wi 1.01,2013-03-08 11:22:00,
2013-03-08 05:27:00,15.3,11.3,28.94,ESE,123,8.0,9.6,84,0.00,,,-99.99,FreeWX-Wi 1.01,2013-03-08 11:27:00,
2013-03-08 05:32:00,15.1,10.9,28.97,ESE,123,8.0,8.7,83,0.00,,,-99.99,FreeWX-Wi 1.01,2013-03-08 11:32:00,
2013-03-08 05:37:00,15.1,10.9,28.97,SE,124,8.0,8.7,83,0.00,,,-99.99,FreeWX-Wi 1.01,2013-03-08 11:37:00,
2013-03-08 05:42:00,14.9,10.8,28.97,SE,124,8.0,8.3,83,0.00,,,-99.99,FreeWX-Wi 1.01,2013-03-08 11:42:00,
2013-03-08 05:47:00,14.9,10.8,28.94,SE,125,7.0,8.3,83,0.00,,,-99.99,FreeWX-Wi 1.01,2013-03-08 11:47:00,
2013-03-08 05:53:00,15.3,11.3,28.94,SE,124,7.0,9.2,84,0.00,,,-99.99,FreeWX-Wi 1.01,2013-03-08 11:53:00,
2013-03-08 05:58:00,15.4,11.5,28.94,ESE,123,7.0,8.7,84,0.00,,,-99.99,FreeWX-Wi 1.01,2013-03-08 11:58:00,
2013-03-08 06:03:00,15.4,11.8,28.97,ESE,122,7.0,8.7,85,0.00,,,-99.99,FreeWX-Wi 1.01,2013-03-08 12:03:00,
2013-03-08 06:08:00,15.4,11.5,28.97,ESE,122,8.0,8.3,84,0.00,,,-99.99,FreeWX-Wi 1.01,2013-03-08 12:08:00,
2013-03-08 06:13:00,15.6,11.7,28.97,ESE,121,8.0,8.7,84,0.00,,,-99.99,FreeWX-Wi 1.01,2013-03-08 12:13:00,
2013-03-08 06:23:00,16.0,12.0,28.97,ESE,121,8.0,8.7,84,0.00,,,-99.99,FreeWX-Wi 1.01,2013-03-08 12:23:00,
2013-03-08 06:28:00,15.8,11.8,28.97,ESE,121,8.0,8.7,84,0.00,,,-99.99,FreeWX-Wi 1.01,2013-03-08 12:28:00,
2013-03-08 06:33:00,15.4,11.3,28.97,ESE,121,8.0,8.3,83,0.00,,,-99.99,FreeWX-Wi 1.01,2013-03-08 12:33:00,
2013-03-08 06:38:00,15.4,11.3,28.97,ESE,121,7.0,8.3,83,0.00,,,-99.99,FreeWX-Wi 1.01,2013-03-08 12:38:00,
2013-03-08 06:44:00,15.8,12.0,28.97,ESE,121,7.0,8.3,85,0.00,,,-99.99,FreeWX-Wi 1.01,2013-03-08 12:44:00,
2013-03-08 06:49:00,16.0,12.2,28.97,ESE,121,7.0,8.3,85,0.00,,,-99.99,FreeWX-Wi 1.01,2013-03-08 12:49:00,
2013-03-08 06:54:00,16.0,12.0,28.97,ESE,121,7.0,8.1,84,0.00,,,-99.99,FreeWX-Wi 1.01,2013-03-08 12:54:00,
2013-03-08 06:59:00,16.2,12.2,28.97,ESE,120,7.0,8.3,84,0.00,,,-99.99,FreeWX-Wi 1.01,2013-03-08 12:59:00,
2013-03-08 07:04:00,16.5,12.7,28.97,ESE,120,7.0,8.7,85,0.00,,,-99.99,FreeWX-Wi 1.01,2013-03-08 13:04:00,
2013-03-08 07:09:00,16.9,13.1,28.97,ESE,120,7.0,10.1,85,0.00,,,-99.99,FreeWX-Wi 1.01,2013-03-08 13:09:00,
2013-03-08 07:14:00,16.9,12.9,28.97,ESE,122,7.0,8.7,84,0.00,,,-99.99,FreeWX-Wi 1.01,2013-03-08 13:14:00,
2013-03-08 07:19:00,17.1,12.7,28.97,ESE,123,7.0,8.1,83,0.00,,,-99.99,FreeWX-Wi 1.01,2013-03-08 13:19:00,
2013-03-08 07:24:00,17.4,13.1,28.97,SE,125,7.0,8.3,83,0.00,,,-99.99,FreeWX-Wi 1.01,2013-03-08 13:24:00,
2013-03-08 07:29:00,17.6,13.3,28.97,SE,127,7.0,8.1,83,0.00,,,-99.99,FreeWX-Wi 1.01,2013-03-08 13:29:00,
2013-03-08 07:35:00,17.8,13.3,28.97,SE,129,6.0,8.1,82,0.00,,,-99.99,FreeWX-Wi 1.01,2013-03-08 13:35:00,
2013-03-08 07:40:00,18.1,13.6,28.97,SE,131,6.0,8.7,82,0.00,,,-99.99,FreeWX-Wi 1.01,2013-03-08 13:40:00,
2013-03-08 07:45:00,18.1,13.6,28.97,SE,131,7.0,8.7,82,0.00,,,-99.99,FreeWX-Wi 1.01,2013-03-08 13:45:00,
2013-03-08 07:50:00,18.5,14.0,28.97,SE,131,7.0,8.1,82,0.00,,,-99.99,FreeWX-Wi 1.01,2013-03-08 13:50:00,
2013-03-08 07:55:00,18.9,14.0,28.97,SE,131,7.0,8.1,81,0.00,,,-99.99,FreeWX-Wi 1.01,2013-03-08 13:55:00,
2013-03-08 08:00:00,19.2,14.4,28.97,SE,132,7.0,8.1,81,0.00,,,-99.99,FreeWX-Wi 1.01,2013-03-08 14:00:00,
2013-03-08 08:05:00,19.4,14.2,28.97,SE,132,7.0,8.3,80,0.00,,,-99.99,FreeWX-Wi 1.01,2013-03-08 14:05:00,
2013-03-08 08:11:00,19.6,14.4,28.97,SE,133,7.0,8.3,80,0.00,,,-99.99,FreeWX-Wi 1.01,2013-03-08 14:11:00,
2013-03-08 08:16:00,19.9,14.7,28.97,SE,133,6.0,8.1,80,0.00,,,-99.99,FreeWX-Wi 1.01,2013-03-08 14:16:00,
2013-03-08 08:21:00,20.1,14.9,28.97,SE,134,6.0,8.3,80,0.00,,,-99.99,FreeWX-Wi 1.01,2013-03-08 14:21:00,
2013-03-08 08:26:00,20.5,15.3,28.97,SE,135,6.0,8.7,80,0.00,,,-99.99,FreeWX-Wi 1.01,2013-03-08 14:26:00,
2013-03-08 08:31:00,20.8,15.6,28.97,SE,135,7.0,8.3,80,0.00,,,-99.99,FreeWX-Wi 1.01,2013-03-08 14:31:00,
2013-03-08 08:36:00,21.2,15.8,28.97,SE,135,7.0,8.7,79,0.00,,,-99.99,FreeWX-Wi 1.01,2013-03-08 14:36:00,
2013-03-08 08:41:00,21.7,16.3,28.97,SE,135,7.0,8.7,79,0.00,,,-99.99,FreeWX-Wi 1.01,2013-03-08 14:41:00,
2013-03-08 08:46:00,21.9,15.8,28.97,SE,134,7.0,8.7,77,0.00,,,-99.99,FreeWX-Wi 1.01,2013-03-08 14:46:00,
2013-03-08 08:51:00,22.5,16.0,28.97,SE,134,7.0,8.7,76,0.00,,,-99.99,FreeWX-Wi 1.01,2013-03-08 14:51:00,
2013-03-08 08:56:00,23.0,16.5,28.97,SE,134,7.0,8.7,76,0.00,,,-99.99,FreeWX-Wi 1.01,2013-03-08 14:56:00,
2013-03-08 09:01:00,23.7,17.2,28.97,SE,136,7.0,11.0,76,0.00,,,-99.99,FreeWX-Wi 1.01,2013-03-08 15:01:00,
2013-03-08 09:06:00,24.4,17.4,28.97,SE,139,8.0,10.5,74,0.00,,,-99.99,FreeWX-Wi 1.01,2013-03-08 15:06:00,
2013-03-08 09:12:00,25.0,16.5,28.97,SE,142,8.0,11.0,70,0.00,,,-99.99,FreeWX-Wi 1.01,2013-03-08 15:12:00,
2013-03-08 09:17:00,25.3,16.7,28.97,SE,144,8.0,11.0,69,0.00,,,-99.99,FreeWX-Wi 1.01,2013-03-08 15:17:00,
2013-03-08 09:22:00,26.1,16.9,28.97,SSE,147,8.0,11.0,68,0.00,,,-99.99,FreeWX-Wi 1.01,2013-03-08 15:22:00,
2013-03-08 09:27:00,26.8,17.2,28.97,SSE,149,8.0,12.3,67,0.00,,,-99.99,FreeWX-Wi 1.01,2013-03-08 15:27:00,
2013-03-08 09:32:00,27.3,17.8,28.97,SSE,151,9.0,13.2,67,0.00,,,-99.99,FreeWX-Wi 1.01,2013-03-08 15:32:00,
2013-03-08 09:42:00,27.9,18.0,28.97,SSE,155,10.0,13.2,66,0.00,,,-99.99,FreeWX-Wi 1.01,2013-03-08 15:42:00,
2013-03-08 09:47:00,28.2,18.3,28.97,SSE,157,10.0,14.5,66,0.00,,,-99.99,FreeWX-Wi 1.01,2013-03-08 15:47:00,
2013-03-08 09:52:00,28.2,18.3,28.97,SSE,159,11.0,15.4,66,0.00,,,-99.99,FreeWX-Wi 1.01,2013-03-08 15:52:00,
2013-03-08 09:58:00,28.6,19.0,28.97,SSE,160,11.0,15.4,67,0.00,,,-99.99,FreeWX-Wi 1.01,2013-03-08 15:58:00,
2013-03-08 10:03:00,29.1,18.9,28.97,SSE,161,12.0,16.3,65,0.00,,,-99.99,FreeWX-Wi 1.01,2013-03-08 16:03:00,
2013-03-08 10:08:00,28.8,18.5,28.97,SSE,162,12.0,16.3,65,0.00,,,-99.99,FreeWX-Wi 1.01,2013-03-08 16:08:00,
2013-03-08 10:13:00,29.1,18.5,28.97,SSE,163,13.0,17.9,64,0.00,,,-99.99,FreeWX-Wi 1.01,2013-03-08 16:13:00,
2013-03-08 10:18:00,29.1,18.5,28.97,SSE,163,13.0,17.9,64,0.00,,,-99.99,FreeWX-Wi 1.01,2013-03-08 16:18:00,
2013-03-08 10:23:00,29.1,18.5,28.97,SSE,163,14.0,17.0,64,0.00,,,-99.99,FreeWX-Wi 1.01,2013-03-08 16:23:00,
2013-03-08 10:28:00,29.5,18.5,28.97,SSE,163,14.0,15.4,63,0.00,,,-99.99,FreeWX-Wi 1.01,2013-03-08 16:28:00,
2013-03-08 10:33:00,29.8,18.9,28.97,SSE,163,14.0,15.9,63,0.00,,,-99.99,FreeWX-Wi 1.01,2013-03-08 16:33:00,
2013-03-08 10:38:00,30.0,18.7,28.97,SSE,163,13.0,15.0,62,0.00,,,-99.99,FreeWX-Wi 1.01,2013-03-08 16:38:00,
2013-03-08 10:43:00,30.2,18.0,28.97,SSE,163,13.0,15.4,60,0.00,,,-99.99,FreeWX-Wi 1.01,2013-03-08 16:43:00,
2013-03-08 10:48:00,30.9,19.0,28.97,SSE,162,12.0,14.1,61,0.00,,,-99.99,FreeWX-Wi 1.01,2013-03-08 16:48:00,
2013-03-08 10:54:00,30.7,18.1,28.97,SSE,160,12.0,17.4,59,0.00,,,-99.99,FreeWX-Wi 1.01,2013-03-08 16:54:00,
2013-03-08 10:59:00,31.1,18.1,28.97,SSE,158,13.0,17.0,58,0.00,,,-99.99,FreeWX-Wi 1.01,2013-03-08 16:59:00,
2013-03-08 11:04:00,31.1,18.5,28.94,SSE,157,13.0,17.4,59,0.00,,,-99.99,FreeWX-Wi 1.01,2013-03-08 17:04:00,
2013-03-08 11:09:00,31.3,19.0,28.94,SSE,156,13.0,16.3,60,0.00,,,-99.99,FreeWX-Wi 1.01,2013-03-08 17:09:00,
2013-03-08 11:14:00,31.8,19.2,28.94,SSE,155,13.0,15.4,59,0.00,,,-99.99,FreeWX-Wi 1.01,2013-03-08 17:14:00,
2013-03-08 11:19:00,32.4,19.6,28.97,SSE,155,13.0,15.0,59,0.00,,,-99.99,FreeWX-Wi 1.01,2013-03-08 17:19:00,
2013-03-08 11:24:00,32.7,19.9,28.97,SSE,157,12.0,14.5,59,0.00,,,-99.99,FreeWX-Wi 1.01,2013-03-08 17:24:00,
2013-03-08 11:29:00,33.1,19.6,28.97,SSE,156,12.0,15.4,57,0.00,,,-99.99,FreeWX-Wi 1.01,2013-03-08 17:29:00,
2013-03-08 11:34:00,33.3,19.8,28.94,SSE,155,12.0,15.9,57,0.00,,,-99.99,FreeWX-Wi 1.01,2013-03-08 17:34:00,
2013-03-08 11:39:00,33.4,19.4,28.94,SSE,155,12.0,13.2,56,0.00,,,-99.99,FreeWX-Wi 1.01,2013-03-08 17:39:00,
2013-03-08 11:44:00,34.0,20.3,28.94,SSE,153,12.0,15.4,57,0.00,,,-99.99,FreeWX-Wi 1.01,2013-03-08 17:44:00,
2013-03-08 11:49:00,34.3,20.3,28.94,SSE,152,12.0,15.0,56,0.00,,,-99.99,FreeWX-Wi 1.01,2013-03-08 17:49:00,
2013-03-08 11:55:00,34.5,19.6,28.94,SSE,152,12.0,13.2,54,0.00,,,-99.99,FreeWX-Wi 1.01,2013-03-08 17:55:00,
2013-03-08 12:00:00,34.9,20.3,28.94,SSE,151,11.0,13.2,55,0.00,,,-99.99,FreeWX-Wi 1.01,2013-03-08 18:00:00,
2013-03-08 12:05:00,34.9,19.9,28.94,SSE,150,11.0,17.4,54,0.00,,,-99.99,FreeWX-Wi 1.01,2013-03-08 18:05:00,
2013-03-08 12:10:00,35.1,19.2,28.94,SSE,150,11.0,17.4,52,0.00,,,-99.99,FreeWX-Wi 1.01,2013-03-08 18:10:00,
2013-03-08 12:15:00,34.9,19.6,28.94,SSE,150,12.0,15.4,53,0.00,,,-99.99,FreeWX-Wi 1.01,2013-03-08 18:15:00,
2013-03-08 12:20:00,34.7,19.8,28.94,SSE,151,12.0,15.0,54,0.00,,,-99.99,FreeWX-Wi 1.01,2013-03-08 18:20:00,
2013-03-08 12:25:00,35.2,19.8,28.94,SSE,150,12.0,15.4,53,0.00,,,-99.99,FreeWX-Wi 1.01,2013-03-08 18:25:00,
2013-03-08 12:30:00,36.0,21.0,28.94,SSE,151,12.0,15.0,54,0.00,,,-99.99,FreeWX-Wi 1.01,2013-03-08 18:30:00,
2013-03-08 12:35:00,35.6,20.1,28.94,SSE,151,12.0,15.9,53,0.00,,,-99.99,FreeWX-Wi 1.01,2013-03-08 18:35:00,
2013-03-08 12:40:00,36.1,20.7,28.94,SSE,150,12.0,15.0,53,0.00,,,-99.99,FreeWX-Wi 1.01,2013-03-08 18:40:00,
2013-03-08 12:45:00,35.4,20.8,28.94,SSE,147,12.0,17.9,55,0.00,,,-99.99,FreeWX-Wi 1.01,2013-03-08 18:45:00,
2013-03-08 12:51:00,35.8,20.3,28.91,SE,145,12.0,16.3,53,0.00,,,-99.99,FreeWX-Wi 1.01,2013-03-08 18:51:00,
2013-03-08 12:56:00,35.6,20.7,28.91,SE,144,12.0,17.4,54,0.00,,,-99.99,FreeWX-Wi 1.01,2013-03-08 18:56:00,
2013-03-08 13:01:00,35.6,20.7,28.91,SE,145,13.0,17.0,54,0.00,,,-99.99,FreeWX-Wi 1.01,2013-03-08 19:01:00,
2013-03-08 13:06:00,36.3,20.8,28.91,SE,144,13.0,17.4,53,0.00,,,-99.99,FreeWX-Wi 1.01,2013-03-08 19:06:00,
2013-03-08 13:11:00,36.1,21.2,28.91,SE,146,13.0,17.0,54,0.00,,,-99.99,FreeWX-Wi 1.01,2013-03-08 19:11:00,
2013-03-08 13:16:00,36.7,21.2,28.91,SSE,147,13.0,15.4,53,0.00,,,-99.99,FreeWX-Wi 1.01,2013-03-08 19:16:00,
2013-03-08 13:22:00,37.2,21.7,28.91,SSE,148,13.0,13.2,53,0.00,,,-99.99,FreeWX-Wi 1.01,2013-03-08 19:22:00,
2013-03-08 13:27:00,37.2,21.2,28.91,SE,146,12.0,15.0,52,0.00,,,-99.99,FreeWX-Wi 1.01,2013-03-08 19:27:00,
2013-03-08 13:32:00,36.7,22.1,28.91,SE,143,12.0,14.5,55,0.00,,,-99.99,FreeWX-Wi 1.01,2013-03-08 19:32:00,
2013-03-08 13:37:00,37.4,21.4,28.91,SE,143,12.0,15.0,52,0.00,,,-99.99,FreeWX-Wi 1.01,2013-03-08 19:37:00,
2013-03-08 13:42:00,37.4,21.9,28.91,SE,141,11.0,13.6,53,0.00,,,-99.99,FreeWX-Wi 1.01,2013-03-08 19:42:00,
2013-03-08 13:47:00,38.3,22.3,28.91,SE,142,10.0,12.3,52,0.00,,,-99.99,FreeWX-Wi 1.01,2013-03-08 19:47:00,
2013-03-08 13:52:00,38.7,22.6,28.91,SE,142,10.0,12.3,52,0.00,,,-99.99,FreeWX-Wi 1.01,2013-03-08 19:52:00,
2013-03-08 13:57:00,38.7,22.6,28.91,SE,143,10.0,12.3,52,0.00,,,-99.99,FreeWX-Wi 1.01,2013-03-08 19:57:00,
2013-03-08 14:02:00,38.7,22.1,28.91,SE,144,10.0,12.8,51,0.00,,,-99.99,FreeWX-Wi 1.01,2013-03-08 20:02:00,
2013-03-08 14:07:00,38.1,21.6,28.91,SE,145,9.0,12.8,51,0.00,,,-99.99,FreeWX-Wi 1.01,2013-03-08 20:07:00,
2013-03-08 14:12:00,38.5,21.9,28.91,SE,146,9.0,13.2,51,0.00,,,-99.99,FreeWX-Wi 1.01,2013-03-08 20:12:00,
2013-03-08 14:17:00,38.1,22.1,28.91,SE,144,10.0,13.2,52,0.00,,,-99.99,FreeWX-Wi 1.01,2013-03-08 20:17:00,
2013-03-08 14:22:00,36.7,22.5,28.91,SE,141,10.0,13.6,56,0.00,,,-99.99,FreeWX-Wi 1.01,2013-03-08 20:22:00,
2013-03-08 14:28:00,36.3,23.0,28.91,SE,139,10.0,13.2,58,0.00,,,-99.99,FreeWX-Wi 1.01,2013-03-08 20:28:00,
2013-03-08 14:33:00,36.3,23.0,28.88,SE,134,10.0,13.2,58,0.00,,,-99.99,FreeWX-Wi 1.01,2013-03-08 20:33:00,
2013-03-08 14:38:00,36.9,22.6,28.88,SE,131,10.0,12.3,56,0.00,,,-99.99,FreeWX-Wi 1.01,2013-03-08 20:38:00,
2013-03-08 14:43:00,38.3,22.3,28.88,SE,129,10.0,11.0,52,0.00,,,-99.99,FreeWX-Wi 1.01,2013-03-08 20:43:00,
2013-03-08 14:48:00,37.8,22.1,28.88,SE,131,10.0,12.8,53,0.00,,,-99.99,FreeWX-Wi 1.01,2013-03-08 20:48:00,
2013-03-08 14:53:00,37.8,22.6,28.88,SE,132,10.0,11.0,54,0.00,,,-99.99,FreeWX-Wi 1.01,2013-03-08 20:53:00,
2013-03-08 14:58:00,37.6,22.1,28.88,SE,133,9.0,10.1,53,0.00,,,-99.99,FreeWX-Wi 1.01,2013-03-08 20:58:00,
2013-03-08 15:03:00,37.4,22.6,28.91,SE,134,9.0,10.1,55,0.00,,,-99.99,FreeWX-Wi 1.01,2013-03-08 21:03:00,
2013-03-08 15:08:00,36.3,22.6,28.91,SE,132,8.0,10.1,57,0.00,,,-99.99,FreeWX-Wi 1.01,2013-03-08 21:08:00,
2013-03-08 15:13:00,36.7,23.4,28.91,SE,131,8.0,10.1,58,0.00,,,-99.99,FreeWX-Wi 1.01,2013-03-08 21:13:00,
2013-03-08 15:18:00,37.0,22.8,28.91,SE,130,8.0,10.1,56,0.00,,,-99.99,FreeWX-Wi 1.01,2013-03-08 21:18:00,
2013-03-08 15:24:00,37.8,22.6,28.91,SE,130,8.0,8.7,54,0.00,,,-99.99,FreeWX-Wi 1.01,2013-03-08 21:24:00,
2013-03-08 15:29:00,37.9,22.3,28.91,SE,130,8.0,8.7,53,0.00,,,-99.99,FreeWX-Wi 1.01,2013-03-08 21:29:00,
2013-03-08 15:34:00,38.3,22.6,28.91,SE,131,8.0,10.1,53,0.00,,,-99.99,FreeWX-Wi 1.01,2013-03-08 21:34:00,
2013-03-08 15:39:00,37.6,22.5,28.91,SE,132,8.0,11.0,54,0.00,,,-99.99,FreeWX-Wi 1.01,2013-03-08 21:39:00,
2013-03-08 15:44:00,37.2,23.0,28.91,SE,131,8.0,11.9,56,0.00,,,-99.99,FreeWX-Wi 1.01,2013-03-08 21:44:00,
2013-03-08 15:49:00,36.7,22.8,28.88,SE,130,8.0,11.4,57,0.00,,,-99.99,FreeWX-Wi 1.01,2013-03-08 21:49:00,
2013-03-08 15:54:00,37.0,23.2,28.88,SE,130,9.0,11.0,57,0.00,,,-99.99,FreeWX-Wi 1.01,2013-03-08 21:54:00,
2013-03-08 15:59:00,36.7,23.4,28.88,SE,129,9.0,12.8,58,0.00,,,-99.99,FreeWX-Wi 1.01,2013-03-08 21:59:00,
2013-03-08 16:05:00,36.7,23.4,28.88,SE,130,9.0,10.5,58,0.00,,,-99.99,FreeWX-Wi 1.01,2013-03-08 22:05:00,
2013-03-08 16:10:00,37.0,24.1,28.88,SE,130,9.0,11.9,59,0.00,,,-99.99,FreeWX-Wi 1.01,2013-03-08 22:10:00,
2013-03-08 16:15:00,36.5,23.9,28.88,SE,130,9.0,13.2,60,0.00,,,-99.99,FreeWX-Wi 1.01,2013-03-08 22:15:00,
2013-03-08 16:20:00,36.5,23.9,28.88,SE,130,9.0,13.2,60,0.00,,,-99.99,FreeWX-Wi 1.01,2013-03-08 22:20:00,
2013-03-08 16:25:00,35.8,24.4,28.88,SE,129,9.0,12.8,63,0.00,,,-99.99,FreeWX-Wi 1.01,2013-03-08 22:25:00,
2013-03-08 16:30:00,35.8,24.8,28.88,SE,128,10.0,14.1,64,0.00,,,-99.99,FreeWX-Wi 1.01,2013-03-08 22:30:00,
2013-03-08 16:35:00,35.6,24.3,28.88,SE,126,10.0,15.4,63,0.00,,,-99.99,FreeWX-Wi 1.01,2013-03-08 22:35:00,
2013-03-08 16:40:00,35.6,24.3,28.88,SE,126,11.0,16.3,63,0.00,,,-99.99,FreeWX-Wi 1.01,2013-03-08 22:40:00,
2013-03-08 16:45:00,35.4,24.4,28.88,SE,125,12.0,16.3,64,0.00,,,-99.99,FreeWX-Wi 1.01,2013-03-08 22:45:00,
2013-03-08 16:50:00,35.1,24.4,28.88,SE,124,12.0,15.9,65,0.00,,,-99.99,FreeWX-Wi 1.01,2013-03-08 22:50:00,
2013-03-08 16:55:00,34.9,24.6,28.88,SE,124,13.0,16.3,66,0.00,,,-99.99,FreeWX-Wi 1.01,2013-03-08 22:55:00,
2013-03-08 17:00:00,34.9,25.0,28.88,ESE,123,13.0,16.8,67,0.00,,,-99.99,FreeWX-Wi 1.01,2013-03-08 23:00:00,
2013-03-08 17:05:00,34.7,24.8,28.88,ESE,123,12.0,14.1,67,0.00,,,-99.99,FreeWX-Wi 1.01,2013-03-08 23:05:00,
2013-03-08 17:11:00,34.7,24.4,28.88,ESE,123,12.0,17.4,66,0.00,,,-99.99,FreeWX-Wi 1.01,2013-03-08 23:11:00,
2013-03-08 17:16:00,34.3,25.0,28.88,ESE,123,12.0,15.9,68,0.00,,,-99.99,FreeWX-Wi 1.01,2013-03-08 23:16:00,
2013-03-08 17:21:00,34.2,25.2,28.88,ESE,123,13.0,16.3,69,0.00,,,-99.99,FreeWX-Wi 1.01,2013-03-08 23:21:00,
2013-03-08 17:26:00,34.2,25.2,28.88,ESE,123,13.0,15.4,69,0.00,,,-99.99,FreeWX-Wi 1.01,2013-03-08 23:26:00,
2013-03-08 17:31:00,34.0,25.2,28.88,SE,125,13.0,15.0,70,0.00,,,-99.99,FreeWX-Wi 1.01,2013-03-08 23:31:00,
2013-03-08 17:36:00,34.0,25.2,28.88,SE,124,13.0,15.0,70,0.00,,,-99.99,FreeWX-Wi 1.01,2013-03-08 23:36:00,
2013-03-08 17:41:00,33.8,25.3,28.88,ESE,123,12.0,13.2,71,0.00,,,-99.99,FreeWX-Wi 1.01,2013-03-08 23:41:00,
2013-03-08 17:47:00,33.6,25.5,28.88,ESE,122,12.0,12.8,72,0.00,,,-99.99,FreeWX-Wi 1.01,2013-03-08 23:47:00,
2013-03-08 17:52:00,33.4,25.7,28.88,ESE,121,11.0,13.2,73,0.00,,,-99.99,FreeWX-Wi 1.01,2013-03-08 23:52:00,
2013-03-08 17:57:00,33.4,25.7,28.88,ESE,121,11.0,15.0,73,0.00,,,-99.99,FreeWX-Wi 1.01,2013-03-08 23:57:00,
2013-03-08 18:02:00,33.4,25.7,28.88,ESE,120,11.0,15.4,73,0.00,,,-99.99,FreeWX-Wi 1.01,2013-03-09 00:02:00,
2013-03-08 18:07:00,33.3,25.5,28.88,ESE,119,11.0,17.4,73,0.00,,,-99.99,FreeWX-Wi 1.01,2013-03-09 00:07:00,
2013-03-08 18:12:00,33.3,25.9,28.88,ESE,119,12.0,16.3,74,0.00,,,-99.99,FreeWX-Wi 1.01,2013-03-09 00:12:00,
2013-03-08 18:17:00,33.1,26.1,28.85,ESE,119,12.0,15.0,75,0.00,,,-99.99,FreeWX-Wi 1.01,2013-03-09 00:17:00,
2013-03-08 18:22:00,32.9,25.9,28.85,ESE,119,13.0,18.3,75,0.00,,,-99.99,FreeWX-Wi 1.01,2013-03-09 00:22:00,
2013-03-08 18:28:00,32.9,25.9,28.85,ESE,117,13.0,16.3,75,0.00,,,-99.99,FreeWX-Wi 1.01,2013-03-09 00:28:00,
2013-03-08 18:33:00,32.9,25.9,28.85,ESE,116,13.0,17.4,75,0.00,,,-99.99,FreeWX-Wi 1.01,2013-03-09 00:33:00,
2013-03-08 18:38:00,32.9,25.9,28.85,ESE,116,13.0,18.8,75,0.00,,,-99.99,FreeWX-Wi 1.01,2013-03-09 00:38:00,
2013-03-08 18:43:00,32.9,25.9,28.85,ESE,116,14.0,18.3,75,0.00,,,-99.99,FreeWX-Wi 1.01,2013-03-09 00:43:00,
2013-03-08 18:48:00,32.9,25.9,28.85,ESE,116,14.0,17.9,75,0.00,,,-99.99,FreeWX-Wi 1.01,2013-03-09 00:48:00,
2013-03-08 18:53:00,32.9,25.9,28.85,ESE,116,14.0,16.8,75,0.00,,,-99.99,FreeWX-Wi 1.01,2013-03-09 00:53:00,
2013-03-08 18:58:00,32.9,25.9,28.85,ESE,118,14.0,17.4,75,0.00,,,-99.99,FreeWX-Wi 1.01,2013-03-09 00:58:00,
2013-03-08 19:03:00,32.7,25.7,28.82,ESE,118,14.0,15.4,75,0.00,,,-99.99,FreeWX-Wi 1.01,2013-03-09 01:03:00,
2013-03-08 19:08:00,32.7,25.7,28.82,ESE,120,14.0,17.4,75,0.00,,,-99.99,FreeWX-Wi 1.01,2013-03-09 01:08:00,
2013-03-08 19:13:00,32.7,25.7,28.82,ESE,119,14.0,17.4,75,0.00,,,-99.99,FreeWX-Wi 1.01,2013-03-09 01:13:00,
2013-03-08 19:18:00,32.7,25.7,28.85,ESE,119,14.0,18.3,75,0.00,,,-99.99,FreeWX-Wi 1.01,2013-03-09 01:18:00,
2013-03-08 19:23:00,32.7,25.3,28.85,ESE,120,14.0,16.8,74,0.00,,,-99.99,FreeWX-Wi 1.01,2013-03-09 01:23:00,
2013-03-08 19:28:00,32.7,25.3,28.85,ESE,120,14.0,16.3,74,0.00,,,-99.99,FreeWX-Wi 1.01,2013-03-09 01:28:00,
2013-03-08 19:34:00,32.9,25.5,28.85,ESE,121,14.0,17.0,74,0.00,,,-99.99,FreeWX-Wi 1.01,2013-03-09 01:34:00,
2013-03-08 19:39:00,32.9,25.2,28.85,ESE,122,14.0,18.8,73,0.00,,,-99.99,FreeWX-Wi 1.01,2013-03-09 01:39:00,
2013-03-08 19:44:00,33.1,25.3,28.85,ESE,123,14.0,20.1,73,0.00,,,-99.99,FreeWX-Wi 1.01,2013-03-09 01:44:00,
2013-03-08 19:49:00,32.9,25.2,28.85,SE,124,14.0,16.3,73,0.00,,,-99.99,FreeWX-Wi 1.01,2013-03-09 01:49:00,
2013-03-08 19:54:00,32.9,25.2,28.85,SE,125,14.0,17.4,73,0.00,,,-99.99,FreeWX-Wi 1.01,2013-03-09 01:54:00,
2013-03-08 19:59:00,32.9,25.2,28.85,SE,126,14.0,20.1,73,0.00,,,-99.99,FreeWX-Wi 1.01,2013-03-09 01:59:00,
2013-03-08 20:04:00,32.7,25.3,28.82,SE,127,14.0,17.4,74,0.00,,,-99.99,FreeWX-Wi 1.01,2013-03-09 02:04:00,
2013-03-08 20:09:00,32.7,25.3,28.82,SE,127,14.0,17.4,74,0.00,,,-99.99,FreeWX-Wi 1.01,2013-03-09 02:09:00,
2013-03-08 20:14:00,32.7,25.0,28.82,SE,127,14.0,18.8,73,0.00,,,-99.99,FreeWX-Wi 1.01,2013-03-09 02:14:00,
2013-03-08 20:19:00,32.7,25.3,28.82,SE,127,14.0,17.4,74,0.00,,,-99.99,FreeWX-Wi 1.01,2013-03-09 02:19:00,
2013-03-08 20:24:00,32.5,25.5,28.82,SE,125,14.0,18.3,75,0.00,,,-99.99,FreeWX-Wi 1.01,2013-03-09 02:24:00,
2013-03-08 20:30:00,32.5,25.2,28.82,SE,125,14.0,17.9,74,0.00,,,-99.99,FreeWX-Wi 1.01,2013-03-09 02:30:00,
2013-03-08 20:35:00,32.7,25.3,28.82,SE,126,15.0,18.3,74,0.00,,,-99.99,FreeWX-Wi 1.01,2013-03-09 02:35:00,
2013-03-08 20:40:00,32.7,25.0,28.82,SE,126,14.0,17.4,73,0.00,,,-99.99,FreeWX-Wi 1.01,2013-03-09 02:40:00,
2013-03-08 20:45:00,32.7,25.0,28.82,SE,127,14.0,16.8,73,0.00,,,-99.99,FreeWX-Wi 1.01,2013-03-09 02:45:00,
2013-03-08 20:50:00,32.7,25.0,28.85,SE,129,14.0,19.2,73,0.00,,,-99.99,FreeWX-Wi 1.01,2013-03-09 02:50:00,
2013-03-08 20:55:00,32.7,24.6,28.85,SE,130,14.0,17.9,72,0.00,,,-99.99,FreeWX-Wi 1.01,2013-03-09 02:55:00,
2013-03-08 21:00:00,32.7,25.0,28.85,SE,130,15.0,18.8,73,0.00,,,-99.99,FreeWX-Wi 1.01,2013-03-09 03:00:00,
2013-03-08 21:05:00,32.9,24.8,28.82,SE,130,15.0,20.1,72,0.00,,,-99.99,FreeWX-Wi 1.01,2013-03-09 03:05:00,
2013-03-08 21:10:00,32.9,24.8,28.82,SE,130,15.0,19.7,72,0.00,,,-99.99,FreeWX-Wi 1.01,2013-03-09 03:10:00,
2013-03-08 21:16:00,32.9,24.8,28.82,SE,129,16.0,19.7,72,0.00,,,-99.99,FreeWX-Wi 1.01,2013-03-09 03:16:00,
2013-03-08 21:21:00,32.9,24.8,28.82,SE,130,16.0,20.1,72,0.00,,,-99.99,FreeWX-Wi 1.01,2013-03-09 03:21:00,
2013-03-08 21:26:00,32.9,24.8,28.82,SE,131,16.0,21.0,72,0.00,,,-99.99,FreeWX-Wi 1.01,2013-03-09 03:26:00,
2013-03-08 21:31:00,32.7,25.0,28.82,SE,131,16.0,18.8,73,0.00,,,-99.99,FreeWX-Wi 1.01,2013-03-09 03:31:00,
2013-03-08 21:36:00,32.7,25.0,28.82,SE,131,16.0,19.7,73,0.00,,,-99.99,FreeWX-Wi 1.01,2013-03-09 03:36:00,
2013-03-08 21:41:00,32.7,25.3,28.82,SE,131,15.0,17.4,74,0.00,,,-99.99,FreeWX-Wi 1.01,2013-03-09 03:41:00,
2013-03-08 21:46:00,32.7,25.3,28.82,SE,131,15.0,16.8,74,0.00,,,-99.99,FreeWX-Wi 1.01,2013-03-09 03:46:00,
2013-03-08 21:51:00,32.7,25.7,28.82,SE,131,14.0,15.4,75,0.00,,,-99.99,FreeWX-Wi 1.01,2013-03-09 03:51:00,
2013-03-08 21:56:00,32.9,25.9,28.82,SE,132,14.0,15.4,75,0.00,,,-99.99,FreeWX-Wi 1.01,2013-03-09 03:56:00,
2013-03-08 22:01:00,33.3,25.5,28.82,SE,133,14.0,17.4,73,0.00,,,-99.99,FreeWX-Wi 1.01,2013-03-09 04:01:00,
2013-03-08 22:07:00,33.8,25.0,28.82,SE,135,13.0,17.4,70,0.00,,,-99.99,FreeWX-Wi 1.01,2013-03-09 04:07:00,
2013-03-08 22:12:00,34.0,25.0,28.82,SE,136,13.0,18.3,69,0.00,,,-99.99,FreeWX-Wi 1.01,2013-03-09 04:12:00,
2013-03-08 22:17:00,33.8,25.3,28.82,SE,138,14.0,17.4,71,0.00,,,-99.99,FreeWX-Wi 1.01,2013-03-09 04:17:00,
2013-03-08 22:22:00,33.6,25.5,28.82,SE,137,14.0,17.4,72,0.00,,,-99.99,FreeWX-Wi 1.01,2013-03-09 04:22:00,
2013-03-08 22:27:00,33.6,25.5,28.82,SE,136,14.0,17.0,72,0.00,,,-99.99,FreeWX-Wi 1.01,2013-03-09 04:27:00,
2013-03-08 22:32:00,33.8,25.3,28.82,SE,136,14.0,19.2,71,0.00,,,-99.99,FreeWX-Wi 1.01,2013-03-09 04:32:00,
2013-03-08 22:37:00,33.6,25.9,28.82,SE,136,14.0,17.4,73,0.00,,,-99.99,FreeWX-Wi 1.01,2013-03-09 04:37:00,
2013-03-08 22:42:00,33.6,25.9,28.82,SE,135,15.0,18.8,73,0.00,,,-99.99,FreeWX-Wi 1.01,2013-03-09 04:42:00,
2013-03-08 22:47:00,33.6,25.9,28.79,SE,135,15.0,18.8,73,0.00,,,-99.99,FreeWX-Wi 1.01,2013-03-09 04:47:00,
2013-03-08 22:52:00,33.4,26.1,28.79,SE,136,14.0,16.8,74,0.00,,,-99.99,FreeWX-Wi 1.01,2013-03-09 04:52:00,
2013-03-08 22:57:00,33.3,25.9,28.79,SE,136,14.0,17.9,74,0.00,,,-99.99,FreeWX-Wi 1.01,2013-03-09 04:57:00,
2013-03-08 23:03:00,33.3,26.2,28.79,SE,135,14.0,16.3,75,0.00,,,-99.99,FreeWX-Wi 1.01,2013-03-09 05:03:00,
2013-03-08 23:08:00,33.1,26.4,28.79,SE,134,14.0,17.4,76,0.00,,,-99.99,FreeWX-Wi 1.01,2013-03-09 05:08:00,
2013-03-08 23:13:00,32.9,26.4,28.79,SE,134,14.0,17.9,77,0.00,,,-99.99,FreeWX-Wi 1.01,2013-03-09 05:13:00,
2013-03-08 23:18:00,32.9,26.4,28.79,SE,132,14.0,19.2,77,0.00,,,-99.99,FreeWX-Wi 1.01,2013-03-09 05:18:00,
2013-03-08 23:23:00,32.9,26.8,28.79,SE,131,14.0,17.4,78,0.00,,,-99.99,FreeWX-Wi 1.01,2013-03-09 05:23:00,
2013-03-08 23:28:00,32.9,26.8,28.79,SE,131,14.0,17.0,78,0.00,,,-99.99,FreeWX-Wi 1.01,2013-03-09 05:28:00,
2013-03-08 23:33:00,33.1,27.3,28.79,SE,131,14.0,16.3,79,0.00,,,-99.99,FreeWX-Wi 1.01,2013-03-09 05:33:00,
2013-03-08 23:38:00,33.1,27.7,28.79,SE,132,14.0,17.4,80,0.00,,,-99.99,FreeWX-Wi 1.01,2013-03-09 05:38:00,
2013-03-08 23:43:00,33.1,27.9,28.79,SE,132,14.0,15.4,81,0.00,,,-99.99,FreeWX-Wi 1.01,2013-03-09 05:43:00,
2013-03-08 23:48:00,33.1,28.2,28.76,SE,133,14.0,16.8,82,0.00,,,-99.99,FreeWX-Wi 1.01,2013-03-09 05:48:00,
2013-03-08 23:54:00,33.1,28.4,28.76,SE,134,14.0,16.3,83,0.00,,,-99.99,FreeWX-Wi 1.01,2013-03-09 05:54:00,
2013-03-08 23:59:00,33.3,28.9,28.76,SE,135,14.0,17.0,84,0.00,,,-99.99,FreeWX-Wi 1.01,2013-03-09 05:59:00,